CAPE
12 10 5 2 2 2 1 0 1 1 1 1 3 1 2 2 0 0 0 0 0 0 0 0 0 0 0 0 0 0 0 0 0 0 0 0 0 0 0 0 0 0 0 55 158
2 6 9 2 2 2 2 1 1 2 1 1 2 2 3 0 0 0 0 0 0 0 0 0 0 0 0 0 0 0 0 0 0 0 0 0 0 0 0 0 0 0 0 0 0
5 5 4 2 2 3 1 1 1 1 1 1 2 0 2 0 0 0 0 0 0 0 0 0 0 0 0 0 0 0 0 0 0 0 0 0 0 0 0 0 0 0 0 0 0
3 3 4 2 2 2 2 1 1 1 2 0 1 2 3 1 0 0 0 0 0 0 0 0 0 0 0 0 0 0 0 0 0 0 0 0 0 0 0 0 0 0 0 0 0
3 3 3 2 2 2 1 1 0 5 1 0 2 3 4 0 0 0 0 0 0 0 0 0 0 0 0 0 0 0 0 0 0 0 0 0 0 0 0 0 0 0 0 0 0
0 0 0 2 3 2 2 2 2 1 2 5 5 6 4 0 0 0 0 0 0 0 0 0 0 0 0 0 0 0 0 0 0 0 0 0 0 0 0 0 0 0 0 0 0
1 3 2 2 2 2 1 2 0 2 2 6 3 5 5 0 0 0 0 0 0 0 0 0 0 0 0 0 0 0 0 0 0 0 0 0 0 0 0 0 0 0 0 0 0
4 4 1 3 3 2 3 3 0 0 0 9 7 6 0 0 0 0 0 0 0 0 0 0 0 0 0 0 0 0 0 0 0 0 0 0 0 0 0 0 0 0 0 0 0
4 8 7 6 4 1 0 0 0 0 1 2 11 7 0 0 0 0 0 0 0 0 0 0 0 0 0 0 0 0 0 0 0 0 0 0 0 0 0 0 0 0 0 0 0
3 1 0 0 0 0 0 0 0 0 0 2 0 3 0 0 0 0 0 0 0 0 0 0 0 0 0 0 0 0 0 0 0 0 0 0 0 0 0 0 0 0 0 0 0
5 0 0 0 0 0 0 0 0 0 3 0 0 0 0 0 0 0 0 0 0 0 0 0 0 0 0 0 0 0 0 0 0 0 0 0 0 0 0 0 0 0 0 0 0
0 0 0 0 0 0 3 0 0 0 0 0 0 0 0 0 0 0 0 0 0 0 0 0 0 0 0 0 0 0 0 0 0 0 0 0 0 0 0 0 0 0 0 0 0
0 0 0 0 0 0 0 0 0 2 1 0 0 0 0 0 0 0 0 0 0 0 0 0 0 0 0 0 0 0 0 0 0 0 0 0 0 0 0 0 0 0 0 0 0
0 0 0 0 0 0 0 0 0 0 0 0 0 0 0 0 0 0 0 0 0 0 0 0 0 0 0 0 0 0 0 0 0 0 0 0 0 0 0 0 0 0 0 0 0
0 0 0 10 3 0 0 0 0 13 0 0 0 0 0 0 0 0 0 0 0 0 1 0 0 0 0 0 0 0 0 0 0 0 0 0 0 0 0 0 0 0 0 1 18
0 0 0 0 0 0 0 0 0 8 1 0 0 0 0 0 0 0 0 0 3 0 1 0 0 0 0 0 0 0 0 0 0 0 0 0 0 0 0 0 0 0 7 74 150
0 0 0 0 0 0 0 0 10 11 0 0 0 0 0 0 17 1 0 0 24 6 1 5 0 0 0 0 0 0 0 0 0 0 0 0 0 0 0 0 0 0 133 103 66
0 0 0 0 0 0 0 0 1 0 0 0 0 0 0 0 0 0 0 0 15 0 0 0 1 0 0 0 0 0 0 0 0 0 0 0 0 0 0 26 2 173 85 30 3
0 0 0 0 0 0 9 0 0 0 0 2 0 0 0 16 39 1 3 0 8 1 2 0 0 0 15 1 0 0 0 0 0 1 0 1 7 0 0 41 117 86 50 18 0
0 0 0 0 8 1 9 0 1 12 20 0 0 0 2 0 34 1 0 0 7 0 33 17 19 14 39 2 3 0 0 0 0 6 0 0 16 82 5 37 25 39 80 50 0
0 0 0 80 64 17 12 0 2 1 68 1 1 1 0 0 55 1 0 0 4 2 0 37 34 4 1 6 0 1 6 0 0 0 0 0 0 9 3 17 9 34 47 5 0
3 1 0 1 2 14 5 2 1 3 1 34 6 2 3 0 31 11 0 0 0 0 2 48 5 0 0 0 0 0 0 2 0 14 20 3 15 1 0 3 0 2 0 0 0
1 0 0 4 11 2 0 0 2 7 25 9 31 0 10 36 1 0 0 0 0 8 9 13 1 0 0 0 0 0 0 11 16 9 11 6 17 0 0 0 1 0 0 0 0
1 1 3 9 10 1 2 0 2 1 14 9 2 0 0 7 29 0 6 6 10 19 10 1 31 0 0 0 0 0 1 24 24 6 0 0 0 1 43 0 0 1 0 0 1
18 12 4 1 0 0 1 0 3 24 5 27 0 1 2 0 10 1 12 22 2 5 7 2 22 2 0 0 8 78 68 88 71 35 4 8 0 0 20 67 5 0 0 0 0
8 1 4 0 2 0 0 0 17 22 11 14 9 17 8 2 0 0 10 0 1 11 0 0 36 28 1 4 0 4 54 24 89 56 57 2 0 25 51 12 0 0 0 0 0
7 17 16 1 1 1 4 2 1 2 26 37 8 0 0 2 0 0 6 5 2 13 0 1 5 0 0 0 0 0 2 6 12 8 2 0 0 8 0 1 20 0 0 0 0
CIN
-1 -4 -7 -2 -1 -1 -0 -1 -1 -1 -0 -0 -0 -0 -0 -0 -0 -0 -0 -0 -0 -0 -0 -0 -0 -0 -0 -0 -0 -0 -0 -0 -0 -0 -0 -0 -0 -0 -0 -0 -0 -0 -0 -56 -71
-3 -4 -0 -7 -1 -2 -0 -0 -0 -0 -0 -1 -0 -0 -1 -1 -0 -0 -0 -0 -0 -0 -0 -0 -0 -0 -0 -0 -0 -0 -0 -0 -0 -0 -0 -0 -0 -0 -0 -0 -0 -0 -0 -0 -0
-5 -4 -3 -3 -1 -0 -0 -1 -0 -2 -1 -0 -0 -0 -0 -0 -0 -0 -0 -0 -0 -0 -0 -0 -0 -0 -0 -0 -0 -0 -0 -0 -0 -0 -0 -0 -0 -0 -0 -0 -0 -0 -0 -0 -0
-6 -4 -1 -1 -1 -1 -0 -0 -0 -0 -0 -0 -1 -0 -0 -0 -0 -0 -0 -0 -0 -0 -0 -0 -0 -0 -0 -0 -0 -0 -0 -0 -0 -0 -0 -0 -0 -0 -0 -0 -0 -0 -0 -0 -0
-5 -4 -2 -2 -2 -1 -0 -0 -0 -0 -1 -0 -0 -0 -0 -0 -0 -0 -0 -0 -0 -0 -0 -0 -0 -0 -0 -0 -0 -0 -0 -0 -0 -0 -0 -0 -0 -0 -0 -0 -0 -0 -0 -0 -0
-0 -0 -0 -3 -2 -0 -0 -0 -0 -0 -0 -0 -0 -1 -0 -0 -0 -0 -0 -0 -0 -0 -0 -0 -0 -0 -0 -0 -0 -0 -0 -0 -0 -0 -0 -0 -0 -0 -0 -0 -0 -0 -0 -0 -0
-3 -1 -0 -0 -0 -0 -0 -0 -0 -0 -0 -0 -0 -0 -0 -0 -0 -0 -0 -0 -0 -0 -0 -0 -0 -0 -0 -0 -0 -0 -0 -0 -0 -0 -0 -0 -0 -0 -0 -0 -0 -0 -0 -0 -0
-2 -1 -0 -0 -0 -0 -0 -0 -0 -0 -0 -0 -0 -0 -0 -0 -0 -0 -0 -0 -0 -0 -0 -0 -0 -0 -0 -0 -0 -0 -0 -0 -0 -0 -0 -0 -0 -0 -0 -0 -0 -0 -0 -0 -0
-0 -0 -2 -1 -1 -1 -0 -0 -0 -0 -0 -1 -0 -0 -0 -0 -0 -0 -0 -0 -0 -0 -0 -0 -0 -0 -0 -0 -0 -0 -0 -0 -0 -0 -0 -0 -0 -0 -0 -0 -0 -0 -0 -0 -0
-0 -0 -0 -0 -0 -0 -0 -0 -0 -0 -0 -2 -0 -0 -0 -0 -0 -0 -0 -0 -0 -0 -0 -0 -0 -0 -0 -0 -0 -0 -0 -0 -0 -0 -0 -0 -0 -0 -0 -0 -0 -0 -0 -0 -0
-0 -0 -0 -0 -0 -0 -0 -0 -0 -0 -0 -0 -0 -0 -0 -0 -0 -0 -0 -0 -0 -0 -0 -0 -0 -0 -0 -0 -0 -0 -0 -0 -0 -0 -0 -0 -0 -0 -0 -0 -0 -0 -0 -0 -0
-0 -0 -0 -0 -0 -0 -0 -0 -0 -0 -0 -0 -0 -0 -0 -0 -0 -0 -0 -0 -0 -0 -0 -0 -0 -0 -0 -0 -0 -0 -0 -0 -0 -0 -0 -0 -0 -0 -0 -0 -0 -0 -0 -0 -0
-0 -0 -0 -0 -0 -0 -0 -0 -0 -52 -2 -0 -0 -0 -0 -0 -0 -0 -0 -0 -0 -0 -0 -0 -0 -0 -0 -0 -0 -0 -0 -0 -0 -0 -0 -0 -0 -0 -0 -0 -0 -0 -0 -0 -0
-0 -0 -0 -0 -0 -0 -0 -0 -0 -0 -0 -0 -0 -0 -0 -0 -0 -0 -0 -0 -0 -0 -0 -0 -0 -0 -0 -0 -0 -0 -0 -0 -0 -0 -0 -0 -0 -0 -0 -0 -0 -0 -0 -0 -0
-0 -0 -0 -0 -1 -0 -0 -0 -0 -6 -0 -0 -0 -0 -0 -0 -0 -0 -0 -0 -0 -0 -3 -0 -0 -0 -0 -0 -0 -0 -0 -0 -0 -0 -0 -0 -0 -0 -0 -0 -0 -0 -12 -37 -102
-0 -0 -0 -0 -0 -0 -0 -0 -0 -1 -0 -0 -0 -0 -0 -0 -0 -0 -0 -2 -4 -0 -2 -0 -0 -0 -0 -0 -0 -0 -0 -0 -0 -0 -0 -0 -0 -0 -0 -0 -0 -0 -18 -60 -161
-0 -0 -0 -0 -0 -0 -0 -0 -1 -1 -0 -0 -0 -0 -0 -0 -4 -17 -2 -0 -3 -10 -4 -2 -0 -0 -0 -0 -0 -0 -0 -0 -0 -0 -0 -0 -0 -0 -0 -0 -0 -0 -53 -117 -179
-0 -0 -0 -0 -0 -0 -0 -0 -0 -0 -0 -0 -0 -0 -0 -0 -0 -0 -0 -0 -7 -0 -0 -0 -3 -0 -0 -0 -0 -0 -0 -0 -0 -0 -0 -0 -0 -0 -0 -42 -22 -98 -130 -162 -196
-0 -0 -0 -0 -0 -0 -3 -2 -0 -0 -0 -0 -0 -0 -0 -3 -7 -38 -0 -18 -16 -0 -6 -0 -0 -6 -15 -4 -11 -0 -0 -0 -0 -30 -0 -3 -4 -0 -1 -31 -67 -96 -134 -187 -4
-0 -0 -0 -0 -57 -19 -2 -0 -0 -9 -12 -0 -0 -0 -8 -5 -5 -13 -0 -1 -19 -2 -9 -27 -10 -41 -13 -3 -14 -0 -0 -0 -0 -3 -0 -0 -28 -36 -100 -86 -47 -50 -74 -135 -11
-0 -0 -0 -39 -14 -6 -0 -0 -1 -2 -1 -13 -6 -2 -0 -0 -9 -16 -0 -5 -8 -4 -0 -32 -29 -16 -15 -8 -0 -5 -17 -0 -0 -0 -1 -0 -0 -101 -111 -170 -128 -111 -118 -151 -0
-0 -0 -0 -1 -1 -0 -0 -2 -0 -2 -13 -4 -8 -2 -42 -3 -6 -28 -0 -0 -0 -0 -0 -49 -24 -0 -0 -0 -0 -0 -0 -33 -0 -8 -22 -12 -21 -141 -0 -161 -0 -121 -6 -0 -0
-0 -0 -0 -6 -0 -0 -0 -0 -3 -2 -2 -0 -1 -5 -6 -5 -4 -0 -0 -3 -0 -0 -3 -26 -8 -0 -0 -0 -19 -0 -0 -7 -44 -33 -23 -20 -49 -0 -0 -0 -5 -0 -0 -0 -0
-2 -0 -17 -36 -0 -0 -0 -0 -1 -11 -12 -0 -4 -0 -0 -36 -18 -0 -4 -42 -13 -1 -1 -13 -22 -0 -0 -0 -0 -1 -1 -16 -21 -21 -0 -0 -0 -61 -45 -0 -0 -54 -0 -0 -8
-2 -2 -0 -0 -0 -0 -2 -0 -1 -18 -0 -11 -0 -0 -0 -2 -7 -5 -13 -3 -4 -2 -1 -10 -23 -106 -25 -18 -27 -36 -47 -14 -25 -46 -49 -36 -0 -0 -24 -38 -125 -6 -0 -0 -0
-0 -4 -2 -0 -1 -0 -0 -0 -6 -23 -1 -1 -1 -1 -5 -5 -0 -0 -22 -0 -0 -2 -0 -0 -16 -14 -21 -44 -0 -73 -97 -59 -14 -45 -46 -21 -14 -66 -94 -82 -24 -0 -0 -0 -0
-0 -2 -0 -0 -0 -0 -1 -0 -0 -1 -3 -1 -1 -0 -0 -0 -0 -1 -3 -1 -1 -1 -0 -0 -1 -25 -19 -0 -0 -0 -99 -101 -65 -62 -23 -0 -3 -117 -0 -27 -67 -0 -14 -0 -0
Wind_Speed
3 8 21 31 28 32 31 32 33 32 31 33 34 35 35 35 35 32 13 11 5 15 22 25 19 11 15 18 20 22 30 39 36 35 34 35 28 27 21 21 21 19 14 10 11
28 29 4 31 34 32 28 27 24 27 30 34 35 35 36 37 36 25 22 15 21 15 6 8 9 9 12 16 18 16 31 34 29 33 35 34 30 25 22 24 25 23 22 13 15
27 33 33 34 34 35 35 34 28 27 24 28 34 36 37 37 31 14 21 1 17 13 8 8 9 9 11 13 14 18 23 30 30 36 39 37 29 24 21 23 26 28 26 26 19
32 32 31 28 28 25 26 26 28 30 30 30 31 33 35 27 26 14 18 18 6 8 8 8 9 10 12 14 15 19 21 24 34 40 40 38 31 29 29 26 21 21 23 26 30
34 33 32 30 31 31 31 30 30 30 29 29 31 32 29 19 16 13 18 18 7 4 10 11 11 11 14 14 16 18 22 26 25 38 40 38 37 30 33 31 27 25 28 28 28
35 35 35 34 33 34 34 32 35 35 32 31 29 25 22 19 21 14 8 11 9 5 10 12 12 13 16 14 15 21 22 26 31 31 40 39 38 33 30 28 29 30 31 33 32
34 36 38 39 39 38 38 38 36 38 39 37 31 23 22 20 18 26 30 9 7 7 10 12 14 11 13 20 17 24 24 31 26 32 40 37 44 40 32 29 30 27 28 30 29
38 38 38 38 38 38 38 38 36 34 37 37 31 22 28 23 20 16 18 18 10 10 9 10 12 14 21 23 26 22 22 25 31 27 34 32 51 39 30 28 28 25 29 24 26
40 39 41 40 39 40 41 42 39 33 31 24 24 21 32 29 22 17 15 14 11 11 9 11 12 15 22 20 26 25 19 21 29 28 30 26 40 41 34 33 27 23 19 21 25
42 42 42 42 42 41 43 45 36 30 23 20 21 28 28 26 21 16 12 13 13 12 15 15 17 19 22 21 23 22 24 29 30 25 30 40 37 32 33 35 25 21 18 18 18
43 43 43 42 43 41 41 37 31 29 23 25 26 28 34 27 34 16 10 14 15 15 20 18 22 27 21 21 24 27 25 22 22 28 27 27 36 30 26 25 16 18 20 20 16
43 43 44 45 44 40 35 31 28 31 50 29 30 35 32 30 38 28 11 16 19 23 19 22 29 23 21 21 21 33 32 33 35 30 20 26 31 20 17 20 17 18 17 21 17
43 43 43 44 44 35 25 26 29 37 45 50 35 36 32 26 34 29 17 20 23 25 25 28 25 23 23 22 21 27 31 30 31 32 27 24 22 24 26 21 24 16 16 17 17
42 42 42 45 37 32 34 30 35 36 45 47 35 29 21 22 37 28 25 21 25 29 27 33 30 20 24 26 20 28 21 26 32 32 25 19 22 23 25 27 25 21 13 13 10
44 44 42 37 36 33 29 31 31 31 50 32 25 11 19 12 20 18 23 25 28 29 28 31 26 30 26 21 27 31 25 21 28 32 26 31 24 30 24 31 29 19 12 12 5
47 46 44 40 30 28 24 28 26 31 46 30 26 31 34 21 25 20 20 24 26 32 41 40 34 32 39 35 24 25 29 28 26 29 28 27 30 31 24 17 20 25 10 8 8
49 47 43 35 33 22 25 23 30 36 25 29 28 34 40 35 28 25 31 24 28 33 37 38 39 41 32 29 41 23 26 25 23 22 27 24 33 31 21 22 11 15 10 8 6
50 48 36 24 17 13 16 17 32 26 23 29 44 44 37 36 32 30 34 39 27 32 35 41 46 29 26 31 32 25 24 23 23 24 25 16 28 29 22 21 21 11 10 9 4
51 40 32 20 9 6 11 20 23 23 26 33 45 46 39 27 29 31 30 46 51 27 41 38 52 37 38 25 25 24 26 20 22 22 24 25 28 31 14 8 4 10 11 8 3
45 37 22 19 6 4 10 16 20 18 35 41 40 37 40 39 33 29 29 30 37 47 34 44 37 30 32 20 38 24 17 21 24 23 27 26 25 19 17 13 12 14 12 8 5
36 34 23 22 15 7 13 16 12 22 36 22 25 39 42 43 37 33 30 32 27 34 37 47 29 35 27 24 21 21 17 22 22 23 23 26 26 12 13 12 10 10 11 11 10
33 32 18 27 20 19 18 20 25 21 24 7 25 31 38 38 38 33 33 31 26 33 38 33 26 38 29 46 29 20 23 22 25 22 21 22 23 14 11 8 10 5 4 6 8
35 27 20 16 17 23 26 35 33 25 32 26 27 28 33 31 33 36 37 33 27 27 28 23 23 21 30 32 33 31 17 20 20 24 26 26 25 11 12 9 17 5 9 5 11
28 27 23 25 25 30 33 31 32 34 30 26 28 28 31 34 33 33 34 26 25 29 30 23 18 25 27 29 28 24 23 15 18 20 23 31 20 17 6 8 11 10 9 3 12
23 22 25 32 35 35 34 33 34 30 26 23 24 26 29 26 29 33 33 29 25 27 25 22 25 22 29 21 27 24 27 19 16 17 24 14 9 15 17 8 5 6 9 11 4
24 25 24 34 30 30 28 28 28 28 29 26 26 28 25 25 27 29 24 26 26 22 23 22 24 15 19 22 22 29 29 26 27 17 19 9 12 9 4 3 2 5 10 7 3
23 20 26 29 27 26 24 24 24 28 24 26 28 26 21 20 23 26 21 19 20 19 22 23 24 19 21 19 21 35 38 30 23 21 13 21 12 6 8 5 5 6 5 4 1
Wind_Direction
300 270 285 312 296 317 335 316 308 318 326 313 306 304 294 285 275 260 247 236 239 213 293 290 295 289 281 283 275 275 269 266 268 269 271 267 295 284 282 274 276 286 291 293 307
301 301 304 302 320 331 341 343 346 339 329 314 307 309 306 293 275 249 241 225 211 202 239 279 285 283 271 278 278 255 266 264 271 271 271 270 291 291 279 271 269 276 280 302 294
297 315 314 312 313 316 321 320 338 338 342 334 318 308 302 301 321 338 327 252 199 194 223 282 276 279 265 265 261 263 240 272 270 267 265 272 286 286 286 275 273 277 281 276 284
350 348 348 350 348 350 346 342 337 331 330 329 328 322 315 325 316 347 338 349 149 187 209 233 270 239 255 258 245 258 262 267 270 267 266 272 284 280 278 284 291 289 284 281 275
345 344 344 345 342 338 337 335 333 330 329 328 325 321 324 318 302 307 315 328 354 197 213 224 235 231 242 249 259 248 270 271 268 268 267 273 273 280 276 279 284 285 277 282 280
342 341 338 338 337 333 331 331 324 322 322 324 323 323 319 295 315 316 277 302 302 246 226 222 267 236 287 242 243 278 272 273 273 268 266 270 274 275 278 280 280 279 278 277 277
342 338 333 331 329 328 325 323 323 316 312 313 316 313 299 259 315 310 306 266 268 253 245 231 218 253 254 282 265 276 275 276 265 271 267 270 271 267 275 280 279 278 278 274 277
338 336 334 334 332 330 327 323 322 319 315 310 310 305 295 305 290 266 286 288 263 260 257 252 234 246 271 281 280 275 272 271 274 269 270 268 264 271 275 273 275 275 279 272 277
338 337 333 333 333 329 327 322 319 317 316 316 313 306 303 311 300 268 256 266 250 267 249 250 239 246 271 267 275 272 259 269 274 274 273 264 268 268 272 274 268 272 273 278 278
337 335 333 330 328 328 326 323 321 317 319 314 305 304 304 305 313 304 247 243 256 254 251 253 257 250 256 257 246 264 265 271 278 276 271 266 267 272 266 274 262 262 271 275 275
338 335 333 332 329 329 328 331 327 321 312 301 299 291 300 310 311 290 250 241 254 240 245 238 253 245 238 247 268 268 268 271 275 277 272 269 268 261 267 269 255 268 269 270 269
338 335 332 330 329 328 326 324 320 318 307 292 279 278 279 287 291 295 245 246 240 244 240 249 241 255 257 259 259 263 265 269 271 276 270 273 275 243 259 270 257 265 262 271 272
338 336 334 333 329 329 328 319 320 317 305 301 289 283 281 268 267 263 245 238 253 246 238 242 266 253 255 253 250 258 261 267 268 272 271 276 270 257 262 273 283 257 258 272 276
339 337 334 332 333 332 321 323 325 329 306 305 307 306 295 264 279 244 248 236 251 247 242 254 252 249 247 251 245 257 257 264 264 269 277 259 270 269 265 264 272 278 255 264 282
338 334 332 332 324 323 324 330 325 325 303 316 323 339 326 270 311 258 222 234 242 246 240 245 241 247 246 242 254 260 261 259 261 268 269 261 275 272 267 264 262 273 265 254 245
336 333 330 327 321 313 316 321 322 306 297 308 307 311 311 310 290 296 236 235 245 250 250 252 255 251 252 254 251 259 258 260 259 263 264 260 267 269 267 270 257 253 255 235 208
336 332 327 319 316 327 327 325 307 298 321 311 306 300 304 294 297 292 261 231 234 240 243 248 250 248 251 251 247 246 247 254 257 246 263 264 266 266 272 281 282 231 214 215 188
337 333 329 318 321 325 334 318 301 315 305 304 300 296 304 300 288 278 273 252 224 238 247 242 244 242 244 241 246 237 237 249 246 259 265 262 266 273 260 284 280 189 162 150 175
340 340 337 340 326 320 334 311 314 316 317 314 294 283 283 292 284 276 276 242 230 217 241 242 236 248 242 241 242 239 239 242 263 267 267 273 276 267 250 252 180 168 166 156 193
344 344 346 347 9 0 329 321 326 324 298 281 279 282 273 272 277 268 269 259 243 231 218 236 246 247 252 236 243 242 238 237 243 255 261 267 275 278 264 248 187 190 203 202 217
353 350 359 355 355 30 334 329 335 280 289 330 314 284 269 264 273 264 256 264 263 244 244 228 249 243 245 236 208 235 226 239 251 259 260 262 269 281 277 266 256 228 204 188 184
356 349 353 340 338 332 339 342 320 262 260 277 300 250 261 266 259 250 249 254 276 263 240 241 245 237 248 226 245 236 239 240 246 253 264 263 270 264 256 280 265 240 212 190 190
350 349 10 6 343 333 316 287 291 275 300 330 316 302 276 277 258 248 249 258 259 270 232 242 240 233 242 239 242 244 228 235 247 256 256 253 258 279 271 250 245 232 239 258 279
356 354 357 338 321 301 304 292 306 314 309 338 307 316 298 263 253 246 243 260 257 247 228 247 242 240 237 241 233 243 245 204 239 246 250 255 261 260 270 185 223 195 194 129 245
3 359 356 323 297 296 292 282 291 296 338 337 325 305 316 264 246 240 244 249 266 255 238 242 233 247 238 244 232 244 242 235 230 243 253 253 246 252 262 235 191 194 181 157 195
358 354 347 288 284 288 286 288 286 290 304 312 295 298 279 259 245 243 248 245 254 250 235 238 230 236 226 228 235 236 232 240 240 252 257 259 249 255 5 323 152 133 146 195 215
1 357 308 283 280 281 281 284 282 282 286 317 303 292 263 250 261 248 248 249 247 248 233 228 237 227 233 242 245 241 226 229 243 255 251 249 266 227 290 286 133 151 142 110 68